Location: Ahstedt
(52.2048°N, 10.1060°E)
Time: 05:44:17
(UTC+00:00)

Lacrosse 5 rocket - Pass Details

Date: 18 January 2026
Orbit: 400 x 481 km, 57.0° (Epoch: 18 February)

Event Time Altitude Azimuth Distance (km) Brightness Sun altitude
Exits shadow 05:25:00 31° 321° (NW) 872 1.9 -16.8°
Maximum altitude 05:26:21 47° 14° (NNE) 662 1.7 -16.6°
Drops below altitude 10° 05:30:01 10° 89° (E) 1,679 5.0 -16.1°
Sets 05:32:14 0° 96° (E) 2,555 6.5 -15.7°
